sat.trackr.live / text

‹ back to catalog

STARLINK-4642

NORAD 53720 · 2022-107W

PAYLOAD ACTIVE UNKNOWN

§ Identity

Operator
Country
US
Launch date
2022-09-05
Launch site
AFETR
Launch vehicle
Mass (kg)
RCS (m²)

Purposes: comms

External: N2YO · Heavens-Above · Gunter

§ Orbital elements

Epoch: 2026-05-24T18:39:03.831552Z

Period
95.44 min
Inclination
53.2126°
Eccentricity
0.0001951
Mean motion
15.08837512 rev/d
Perigee alt
538.4 km
Apogee alt
541.1 km
Semi-major
6,917.9 km
B*
2.6883e-5
RAAN
272.3061°
Arg perigee
86.9330°
Mean anomaly
273.1885°
Rev number
20,590

§ Raw data

STARLINK-46421 53720U 22107W   26144.77712768  .00000140  00000+0  26883-4 0  99962 53720  53.2126 272.3061 0001951  86.9330 273.1885 15.08837512205904

JSON: /api/v1/satellites/53720 · /tle

For live sub-satellite position, see the globe view (requires WebGL).

§ Visibility from observer

Set your observer location to see the next 7 days of passes ≥ 10°. The values pass through the URL so the page stays shareable.

No JS? Fill the form by hand. The geolocation button needs JavaScript.